Location: Unnamed
(53.9252°N, 27.5757°E)
Time: 11:08:51
(UTC+03:00)

EGYPTSAT 2 - Pass Details

Date: 23 April 2019
Orbit: 711 x 713 km, 51.6° (Epoch: 22 September)

Event Time Altitude Azimuth Distance (km) Brightness Sun altitude
Exits shadow 03:45:29 26° 233° (SW) 1,391 ? -15.8°
Maximum altitude 03:48:12 57° 164° (SSE) 838 ? -15.5°
Drops below altitude 10° 03:53:10 10° 87° (E) 2,193 ? -15.0°
Sets 03:55:35 0° 83° (E) 3,114 ? -14.8°
